Regional Weather Roundup
Issued by NWS

Home | Current Version | Previous Version | Text Only | Print | Product List | Glossary On
Versions: 1 2 3 4 5 6 7 8 9 10 11 12 13 14 15 16 17 18 19 20 21 22 23 24 25 26 27 28 29 30 31 32 33 34 35 36 37 38 39 40 41 42 43 44 45 46 47 48 49 50
000
ASUS43 KMKX 230400
RWRWI

WISCONSIN REGIONAL WEATHER ROUNDUP
NATIONAL WEATHER SERVICE MILWAUKEE/SULLIVAN WI
1100 PM CDT SAT JUL 22 2017

NOTE: "FAIR" INDICATES FEW OR NO CLOUDS BELOW 12,000 FEET WITH NO
SIGNIFICANT WEATHER AND/OR OBSTRUCTIONS TO VISIBILITY.

WIZ001-002-006>008-014>016-023>028-230500-
NORTHWEST WISCONSIN

CITY           SKY/WX    TMP DP  RH WIND       PRES   REMARKS
SUPERIOR ARPT  NOT AVBL
ASHLAND        CLOUDY    58  57  97 CALM      29.83S
HAYWARD        CLEAR     63  61  93 CALM      29.84R
SIREN          CLEAR     69  56  64 W5        29.84S
CUMBERLAND     CLEAR     70  55  60 NW7       29.85R
RICE LAKE      CLEAR     71  60  69 W6        29.85R
CHETEK         CLEAR     75  62  63 NW6       29.83S
LADYSMITH      CLEAR     69  65  86 CALM      29.85R
EAU CLAIRE     CLOUDY    72  69  90 CALM      29.82R
MENOMONIE      CLEAR     73  66  76 W7        29.83S
NEW RICHMOND   CLEAR     68  62  81 CALM      29.85S
OSCEOLA        CLEAR     71  62  72 CALM      29.87R
$$

WIZ003>005-009-010-017-018-230500-
NORTH CENTRAL WISCONSIN

CITY           SKY/WX    TMP DP  RH WIND       PRES   REMARKS
MANITOWISH WTR MOCLDY    62  62 100 CALM      29.82S
ARBOR VITAE    CLOUDY    67  63  86 CALM      29.82S
WOODRUFF       CLOUDY    67  63  86 CALM      29.82S
RHINELANDER    CLEAR     63  61  93 CALM      29.83S
EAGLE RIVER    MOCLDY    65  64  93 CALM      29.82S
LAND O LAKES   CLEAR     64  64  98 CALM      29.84R
PHILLIPS       PTCLDY    66  66 100 N12       29.84R
TOMAHAWK         N/A     63  62  95 CALM      29.83S FOG
MEDFORD        CLEAR     70  65  84 W3        29.83S
MERRILL        CLEAR     68  66  94 CALM      29.82S
$$

WIZ029-030-035-036-043>047-230500-
CENTRAL WISCONSIN

CITY           SKY/WX    TMP DP  RH WIND       PRES   REMARKS
WAUSAU         CLEAR     74  68  81 NW5       29.79F
MOSINEE        CLEAR     72  68  88 W7        29.82F
MARSHFIELD     CLEAR     69  65  86 W5        29.82S
STEVENS POINT  MOCLDY    76  68  77 W5        29.80F
WAUPACA        CLOUDY    76  74  93 SW8       29.78F
WAUTOMA        CLOUDY    74  72  93 W5        29.80F
WISC RAPIDS    MOCLDY    75  68  78 W7        29.81F
CAMP DOUGLAS   NOT AVBL
$$

WIZ011>013-019>022-031-037>040-048>050-230500-
NORTHEAST WISCONSIN

CITY           SKY/WX    TMP DP  RH WIND       PRES   REMARKS
ANTIGO         MOCLDY    67  66  96 CALM      29.82F
SHAWANO        CLOUDY    71  68  90 SE5       29.77F
OCONTO         CLOUDY    66  64  94 W5        29.78F
STURGEON BAY   LGT RAIN  68  65  90 SE9       29.78F
GREEN BAY      MOCLDY    73  69  87 CALM      29.79R
MANITOWOC      NOT AVBL
APPLETON       TSTM      73  70  88 SW9       29.78S
CLINTONVILLE   CLOUDY    77  68  73 N5        29.78R
OSHKOSH        MOCLDY    75  70  84 SW8       29.78F THUNDER
$$

WIZ032>034-041-042-053>061-230500-
SOUTHWEST WISCONSIN

CITY           SKY/WX    TMP DP  RH WIND       PRES   REMARKS
LA CROSSE      MOCLDY    71  68  90 SE5       29.83R
SPARTA         PTCLDY    68  66  93 CALM      29.84S
VIROQUA        CLOUDY    68  68  99 SW18      29.87S
BOSCOBEL       PTCLDY    73  72  96 W5        29.82F
PRAIRIE DU CHI MOCLDY    74  72  93 CALM      29.83R
PLATTEVILLE    CLOUDY    76  76 100 CALM      29.85R
$$

WIZ056-057-062-063-064-067-068-230500-
SOUTH CENTRAL WISCONSIN

CITY           SKY/WX    TMP DP  RH WIND       PRES   REMARKS
REEDSBURG      PTCLDY    72  72 100 CALM      29.81F
BARABOO/DELLS  PTCLDY    71  69  90 CALM      29.82S
LONE ROCK      PTCLDY    72  70  93 CALM      29.81S
MINERAL POINT  PTCLDY    75  73  94 CALM      29.85S
MADISON        MOCLDY    71  70  96 CALM      29.80F
MIDDLETON      PTCLDY    70  70 100 CALM      29.83F
WATERTOWN      CLEAR     70  70 100 CALM      29.82S
MONROE         MOCLDY    75  72  88 CALM      29.84R
JANESVILLE     CLOUDY    73  73 100 CALM      29.81F
$$

WIZ051-052-058>065-066-070>072-230500-
SOUTHEAST WISCONSIN

CITY           SKY/WX    TMP DP  RH WIND       PRES   REMARKS
MILWAUKEE      PTCLDY    72  69  90 SW5       29.81F
WAUKESHA       CLEAR     70  68  94 S3        29.83
MILWAUKEE/TIMM CLEAR     70  63  78 CALM      29.82F
RACINE         CLEAR     71  70  96 S3        29.82F FOG
KENOSHA        CLEAR     72  69  90 SE3       29.82F
FOND DU LAC    PTCLDY    73  69  87 SW3       29.79F
SHEBOYGAN      PTCLDY    67  67 100 S8        29.78F
WEST BEND      CLEAR     68  68 100 CALM      29.82F
JUNEAU         CLEAR     70  68  94 CALM      29.83F
$$

LSZ147-162-230500-
LAKE SUPERIOR

STATION/POSITION TIME  TEMP    WIND        PRES    WAVE
                       AIR SEA DIR/SP/G            HT/PER
                 (UTC) (F)     (DEG/KT/KT) (MB)    (FT/S)
W MID LAKE BUOY  0250   50 48   30/ 10/ 12 1009.7F   2/ 5
DEVILS ISLAND    0300   55     100/ 12/ 13 1009.9R
PORT WING        0240   57      40/  6/ 17 1010.2R
SAXON HARBOR     0340   58     200/  6/  7 1010.2S
$$

LMZ867-665-643>646-230500-
LAKE MICHIGAN

STATION/POSITION TIME  TEMP    WIND        PRES    WAVE
                       AIR SEA DIR/SP/G            HT/PER
                 (UTC) (F)     (DEG/KT/KT) (MB)    (FT/S)
CHAMBERS ISLAND  0340   72      40/  8/ 11 1009.1R
S GREEN BAY BUOY 0330   70 73  240/ 16/ 19 1008.5F
N MID LAKE BUOY  0250   69 69   80/  2/  2 1009.5R   0
NORTHPORT PIER   0340   69     140/  6/  7 1009.1S
KEWAUNEE LAKESHO 0330   70     160/  6/  7 1008.1F
SHEBOYGAN LAKESH 0300   71     220/  6/  6 1009.0R
PORT WASHINGTON  0330   71     270/  1/  4 1010.2F
ATWATER BUOY     0209   70 70  180/  4/  6 1010.5R
MILWAUKEE LAKESH 0330   71     200/  5/  6   N/A
S MID LAKE BUOY  0250   70 70  180/  2/  4 1010.1R   0
KENOSHA   LAKESH 0300   72     120/  2/  3 1009.8
$$

TC  - TEMPERATURE IN CELSIUS
VSB - VISIBILITY IN STATUTE MILES
WCI - WIND CHILL INDEX
HX  - HEAT INDEX





USA.gov is the U.S. government's official web portal to all federal, state and local government web resources and services.